Location: 5810 Zion Rd, Cleves, OH 45002, USA
(39.1922°N, 84.7113°W)
Time: 17:32:00
(UTC-05:00)

S-56A Canister/Altair - Visible Passes

Search period start: 12 December 2019 00:00
Search period end: 22 December 2019 00:00
Orbit: 633 x 2499 km, 38.9° (Epoch: 11 December)

Date Brightness Start Highest point End Pass type
(mag) Time Alt. Az. Time Alt. Az. Time Alt. Az.
12 Dec 11.7 18:09:35 10° W 18:16:04 16° SW 18:21:34 10° SSW visible
13 Dec 11.7 07:06:59 10° S 07:15:15 22° SE 07:25:02 10° E visible
13 Dec 11.6 17:34:47 10° W 17:43:15 20° SW 17:50:15 10° S visible
14 Dec 11.7 06:35:22 10° SSE 06:42:19 18° SE 06:50:26 10° E visible
15 Dec 11.8 06:04:15 10° SSE 06:09:27 14° ESE 06:15:22 10° E visible
16 Dec 11.8 05:34:41 10° SE 05:36:40 11° ESE 05:38:47 10° ESE visible
17 Dec 11.1 06:57:10 10° SSW 07:06:26 37° SE 07:18:37 10° ENE visible
18 Dec 11.1 06:25:01 10° SSW 06:33:26 32° SE 06:44:33 10° E visible
19 Dec 11.0 05:53:01 10° S 06:00:33 27° SE 06:10:22 10° E visible
20 Dec 11.0 05:21:16 10° S 05:27:46 22° SE 05:36:03 10° E visible
20 Dec 10.2 07:21:25 10° SW 07:31:16 60° SSE 07:45:05 10° ENE visible
21 Dec 11.0 04:49:47 10° SSE 04:55:03 17° SE 05:01:30 10° E visible
21 Dec 10.2 06:48:57 10° SW 06:58:07 54° SSE 07:11:13 10° ENE visible
